When you browse on this site, cookies collect data to enhance your experience and personalize the content and advertising you see.
Visit our Privacy Policy to learn more. By continuing to use the site, you agree to this use of cookies and data.
EN

Hourly Weather Tuzla

Today, 12 August, Wednesday

Time Temperature Precipitation Wind Pressure Humidity
00:00 +21°C° 0 mm 1 mps 722 mmHg 82%
01:00 +20°C° 0 mm 1 mps 722 mmHg 83%
02:00 +20°C° 0 mm 1 mps 722 mmHg 84%
03:00 +20°C° 0 mm 1 mps 722 mmHg 85%
04:00 +19°C° 0 mm 1 mps 722 mmHg 86%
05:00 +19°C° 0 mm 0 mps 723 mmHg 84%
06:00 +20°C° 0 mm 0 mps 723 mmHg 82%
07:00 +21°C° 0 mm 0 mps 723 mmHg 80%
08:00 +25°C° 0 mm 1 mps 723 mmHg 72%
09:00 +27°C° 0 mm 1 mps 723 mmHg 65%
10:00 +29°C° 0 mm 1 mps 724 mmHg 57%
11:00 +29°C° 0.6 mm 1 mps 724 mmHg 60%
12:00 +29°C° 0.6 mm 1 mps 723 mmHg 62%
13:00 +29°C° 0.6 mm 2 mps 723 mmHg 64%
14:00 +29°C° 0.2 mm 2 mps 723 mmHg 63%
15:00 +29°C° 0.2 mm 1 mps 723 mmHg 61%
16:00 +29°C° 0.2 mm 1 mps 723 mmHg 60%
17:00 +27°C° 0.4 mm 1 mps 723 mmHg 66%
18:00 +25°C° 0.4 mm 1 mps 723 mmHg 73%
19:00 +21°C° 0.4 mm 0 mps 723 mmHg 80%
20:00 +20°C° 0 mm 0 mps 723 mmHg 81%
21:00 +21°C° 0 mm 1 mps 723 mmHg 83%
22:00 +21°C° 0 mm 1 mps 723 mmHg 84%
23:00 +20°C° 0 mm 1 mps 723 mmHg 85%

Tomorrow, 13 August, Thursday

Time Temperature Precipitation Wind Pressure Humidity
00:00 +20°C° 0 mm 1 mps 723 mmHg 86%
01:00 +20°C° 0 mm 1 mps 723 mmHg 87%
02:00 +19°C° 0 mm 1 mps 723 mmHg 87%
03:00 +19°C° 0 mm 1 mps 723 mmHg 88%
04:00 +19°C° 0 mm 1 mps 723 mmHg 88%
05:00 +20°C° 0 mm 1 mps 723 mmHg 86%
06:00 +22°C° 0 mm 1 mps 723 mmHg 83%
07:00 +23°C° 0 mm 1 mps 723 mmHg 81%
08:00 +25°C° 0 mm 1 mps 723 mmHg 72%
09:00 +27°C° 0 mm 1 mps 724 mmHg 63%
10:00 +29°C° 0 mm 1 mps 724 mmHg 54%
11:00 +30°C° 0 mm 1 mps 724 mmHg 51%
12:00 +31°C° 0 mm 1 mps 723 mmHg 49%
13:00 +32°C° 0 mm 1 mps 723 mmHg 46%
14:00 +31°C° 0 mm 1 mps 723 mmHg 49%
15:00 +31°C° 0 mm 1 mps 722 mmHg 51%
16:00 +30°C° 0 mm 1 mps 722 mmHg 54%
17:00 +28°C° 0.1 mm 1 mps 722 mmHg 62%
18:00 +26°C° 0.1 mm 1 mps 722 mmHg 70%
19:00 +24°C° 0.1 mm 1 mps 721 mmHg 79%
20:00 +23°C° 0 mm 1 mps 721 mmHg 80%
21:00 +23°C° 0 mm 1 mps 721 mmHg 81%
22:00 +22°C° 0 mm 1 mps 721 mmHg 82%
23:00 +22°C° 0.2 mm 1 mps 721 mmHg 84%

Day after tomorrow, 14 August, Friday

Time Temperature Precipitation Wind Pressure Humidity
00:00 +21°C° 0.2 mm 1 mps 721 mmHg 85%
01:00 +21°C° 0.2 mm 1 mps 721 mmHg 86%
02:00 +21°C° 0.1 mm 1 mps 721 mmHg 87%
03:00 +20°C° 0.1 mm 1 mps 720 mmHg 87%
04:00 +20°C° 0.1 mm 1 mps 720 mmHg 87%
05:00 +21°C° 0 mm 1 mps 720 mmHg 85%
06:00 +23°C° 0 mm 1 mps 721 mmHg 82%
07:00 +24°C° 0 mm 1 mps 721 mmHg 80%
08:00 +27°C° 0 mm 1 mps 721 mmHg 70%
09:00 +29°C° 0 mm 1 mps 721 mmHg 59%
10:00 +30°C° 0 mm 0 mps 721 mmHg 49%
11:00 +32°C° 0 mm 1 mps 721 mmHg 46%
12:00 +33°C° 0 mm 1 mps 721 mmHg 43%
13:00 +33°C° 0 mm 1 mps 720 mmHg 40%
14:00 +33°C° 0 mm 1 mps 720 mmHg 44%
15:00 +32°C° 0 mm 1 mps 719 mmHg 49%
16:00 +31°C° 0 mm 1 mps 719 mmHg 54%
17:00 +29°C° 0.1 mm 1 mps 719 mmHg 62%
18:00 +27°C° 0.1 mm 1 mps 719 mmHg 70%
19:00 +25°C° 0.1 mm 1 mps 719 mmHg 77%
20:00 +23°C° 1.1 mm 1 mps 719 mmHg 82%
21:00 +20°C° 1.1 mm 0 mps 719 mmHg 86%
22:00 +19°C° 1.1 mm 0 mps 720 mmHg 91%
23:00 +19°C° 0.6 mm 0 mps 720 mmHg 92%

15 August, Saturday

Time Temperature Precipitation Wind Pressure Humidity
00:00 +18°C° 0.6 mm 0 mps 720 mmHg 93%
01:00 +18°C° 0.6 mm 0 mps 720 mmHg 94%
02:00 +18°C° 0.4 mm 0 mps 719 mmHg 95%
03:00 +17°C° 0.4 mm 0 mps 719 mmHg 96%
04:00 +19°C° 0.4 mm 1 mps 719 mmHg 97%
05:00 +20°C° 0.2 mm 1 mps 720 mmHg 97%
06:00 +20°C° 0.2 mm 1 mps 720 mmHg 97%
07:00 +19°C° 0.2 mm 0 mps 720 mmHg 96%
08:00 +21°C° 0.1 mm 1 mps 720 mmHg 94%
09:00 +22°C° 0.1 mm 1 mps 720 mmHg 92%
10:00 +22°C° 0.1 mm 1 mps 720 mmHg 90%
11:00 +23°C° 0 mm 1 mps 720 mmHg 85%
12:00 +24°C° 0 mm 1 mps 720 mmHg 80%
13:00 +25°C° 0 mm 1 mps 720 mmHg 75%
14:00 +25°C° 0.2 mm 1 mps 720 mmHg 76%
15:00 +25°C° 0.2 mm 1 mps 719 mmHg 77%
16:00 +25°C° 0.2 mm 1 mps 719 mmHg 78%
17:00 +23°C° 0.8 mm 1 mps 719 mmHg 83%
18:00 +22°C° 0.8 mm 1 mps 719 mmHg 89%
19:00 +21°C° 0.8 mm 1 mps 719 mmHg 94%
20:00 +20°C° 0.3 mm 1 mps 719 mmHg 95%
21:00 +20°C° 0.3 mm 1 mps 719 mmHg 95%
22:00 +19°C° 0.3 mm 1 mps 719 mmHg 96%
23:00 +19°C° 0 mm 1 mps 719 mmHg 96%

16 August, Sunday

Time Temperature Precipitation Wind Pressure Humidity
00:00 +19°C° 0 mm 1 mps 719 mmHg 96%
01:00 +16°C° 0 mm 0 mps 719 mmHg 96%
02:00 +16°C° 0 mm 0 mps 719 mmHg 96%
03:00 +16°C° 0 mm 0 mps 719 mmHg 96%
04:00 +16°C° 0 mm 0 mps 719 mmHg 96%
05:00 +17°C° 0 mm 0 mps 720 mmHg 95%
06:00 +18°C° 0 mm 0 mps 720 mmHg 93%
07:00 +19°C° 0 mm 0 mps 720 mmHg 92%
08:00 +23°C° 0 mm 1 mps 721 mmHg 84%
09:00 +24°C° 0 mm 1 mps 721 mmHg 76%
10:00 +26°C° 0 mm 1 mps 721 mmHg 68%
11:00 +27°C° 0 mm 1 mps 721 mmHg 62%
12:00 +28°C° 0 mm 2 mps 721 mmHg 57%
13:00 +28°C° 0 mm 2 mps 721 mmHg 52%
14:00 +28°C° 0.1 mm 2 mps 721 mmHg 54%
15:00 +28°C° 0.1 mm 2 mps 721 mmHg 56%
16:00 +27°C° 0.1 mm 2 mps 720 mmHg 58%
17:00 +25°C° 0 mm 1 mps 720 mmHg 67%
18:00 +23°C° 0 mm 1 mps 720 mmHg 75%
19:00 +19°C° 0 mm 0 mps 720 mmHg 84%
20:00 +19°C° 0 mm 0 mps 720 mmHg 85%
21:00 +20°C° 0 mm 1 mps 721 mmHg 86%
22:00 +19°C° 0 mm 1 mps 721 mmHg 87%
23:00 +19°C° 0 mm 1 mps 721 mmHg 88%

17 August, Monday

Time Temperature Precipitation Wind Pressure Humidity
00:00 +19°C° 0 mm 1 mps 721 mmHg 89%
01:00 +19°C° 0 mm 1 mps 721 mmHg 90%
02:00 +18°C° 0 mm 1 mps 721 mmHg 90%
03:00 +18°C° 0 mm 1 mps 721 mmHg 91%
04:00 +18°C° 0 mm 1 mps 721 mmHg 91%
05:00 +19°C° 0 mm 1 mps 721 mmHg 87%
06:00 +21°C° 0 mm 1 mps 721 mmHg 83%
07:00 +20°C° 0 mm 0 mps 721 mmHg 79%
08:00 +24°C° 0 mm 1 mps 722 mmHg 71%
09:00 +26°C° 0 mm 1 mps 722 mmHg 63%
10:00 +29°C° 0 mm 1 mps 722 mmHg 55%
11:00 +29°C° 0 mm 1 mps 722 mmHg 52%
12:00 +30°C° 0 mm 1 mps 722 mmHg 49%
13:00 +31°C° 0 mm 1 mps 722 mmHg 46%
14:00 +30°C° 0 mm 1 mps 721 mmHg 49%
15:00 +30°C° 0 mm 1 mps 721 mmHg 52%
16:00 +29°C° 0 mm 1 mps 721 mmHg 56%
17:00 +27°C° 0.1 mm 1 mps 720 mmHg 65%
18:00 +25°C° 0.1 mm 1 mps 720 mmHg 73%
19:00 +23°C° 0.1 mm 1 mps 720 mmHg 82%
20:00 +22°C° 0 mm 1 mps 720 mmHg 84%
21:00 +22°C° 0 mm 1 mps 720 mmHg 85%
22:00 +21°C° 0 mm 1 mps 720 mmHg 86%
23:00 +21°C° 0 mm 1 mps 720 mmHg 86%
Show more